[Date Prev][Date Next][Thread Prev][Thread Next] - [Date Index][Thread Index][Author Index]

2 Line ISS Kerps 10-25



ISS
1 25544U 98067A   04299.29113515  .00023837  00000-0  20153-3 0  9909
2 25544  51.6368  21.9071 0008635 273.7217 194.4039 15.69574735338750
----
Via the sarex mailing list at AMSAT.ORG courtesy of AMSAT-NA.
To unsubscribe, send "unsubscribe sarex" to Majordomo@amsat.org



AMSAT Top AMSAT Home